Home > Weather > Rohrbach > Past weeks

Flag for Austria Past Weather in Rohrbach, Upper Austria, Austria — Yesterday and Last 2 Weeks

Now
52 °F

Cool.


Feels Like: 52 °F
Forecast: 50 / 71 °F
Wind: 1 mph from North

Location: Rohrbach

Current Time: May 26, 2016 at 2:53:45 AM

Latest Report: May 26, 2016 at 2:00 AM


Visibility: N/A

Pressure: 30.00 "Hg (27.90 "Hg at 605m altitude)

Humidity: 97%

Dew Point: 51 °F

Location of RohrbachLocation

Past Weather in Rohrbach — Graph

°F

Rohrbach Temperature Yesterday

Maximum temperature yesterday: 64 °F (at 7:00 PM)
Minimum temperature yesterday: 49 °F (at 3:00 AM)
Average temperature yesterday: 55 °F

High & Low Weather Summary for the Past Weeks

 TemperatureHumidityPressure
High83 °F (May 22, 4:00 PM)100% (May 20, 6:00 AM)30.21 "Hg (May 20, 6:00 AM)
Low38 °F (May 16, 4:00 AM)25% (May 22, 4:00 PM)29.35 "Hg (May 12, 2:00 PM)
Average53 °F77%29.86 "Hg
* Reported May 11 1:00 AM — May 26 1:00 AM, Rohrbach, Weather by CustomWeather, © 2016

Note: Actual official high and low records may vary slightly from our data, if they occured in-between our weather recording intervals... More about our weather records

Advertising

Rohrbach Weather History for the Previous 24 Hours

Scroll right to see more
 ConditionsComfort  
Time TempWeatherWind HumidityBarometerVisibility
1:00 AM
Thu, May 26
53 °FCool.1 mph95%30.00 "HgN/A
12:00 AM55 °FCool.1 mph92%29.99 "HgN/A
11:00 PM
Wed, May 25
57 °FCool.1 mph87%29.97 "HgN/A
10:00 PM58 °FCool.1 mph86%29.96 "HgN/A
9:00 PM59 °FCool.2 mph83%29.93 "HgN/A
8:00 PM61 °FCool.2 mph75%29.91 "HgN/A
7:00 PM64 °FMild.2 mph70%29.90 "HgN/A
6:00 PM64 °FMild.2 mph71%29.90 "HgN/A
5:00 PM63 °FMild.2 mph69%29.91 "HgN/A
4:00 PM64 °FMild.1 mph69%29.91 "HgN/A
3:00 PM60 °FCool.2 mph75%29.93 "HgN/A
2:00 PM57 °FCool.1 mph82%29.95 "HgN/A
1:00 PM55 °FCool.2 mph91%29.96 "HgN/A
12:00 PM54 °FCool.1 mph88%29.96 "HgN/A
11:00 AM53 °FCool.2 mph92%29.98 "HgN/A
10:00 AM52 °FCool.2 mph94%29.97 "HgN/A
9:00 AM51 °FCool.2 mph97%29.97 "HgN/A
8:00 AM50 °FCool.3 mph98%29.97 "HgN/A
7:00 AM49 °FCool.2 mph97%29.96 "HgN/A
6:00 AM49 °FCool.1 mph98%29.95 "HgN/A
5:00 AM49 °FCool.1 mph98%29.94 "HgN/A
4:00 AM49 °FCool.2 mph97%29.94 "HgN/A
3:00 AM49 °FCool.2 mph97%29.94 "HgN/A
2:00 AM49 °FCool.2 mph97%29.95 "HgN/A
Weather by CustomWeather, © 2016

See weather overviewHow to use our weather pages